IZ6EGX-13 Weather Reports


Display with metric or nautical units.
time (UTC)temp
F
wind
direction
speed
MPH
gust
MPH
rain 1hr
in
rain 24hr
in
rain mn
in
humidity
%
barometer
mb
20260507112631 67 90 4.0 8.0 0.00 0.00 0.00 69 1014.2
20260507111631 66 91 5.0 8.0 0.00 0.00 0.00 70 1014.3
20260507110632 66 85 5.0 9.0 0.00 0.00 0.00 70 1014.3
20260507105632 67 78 4.0 10.0 0.00 0.00 0.00 69 1014.4
20260507104631 67 69 4.0 8.0 0.00 0.00 0.00 71 1014.5
20260507103631 67 91 4.0 8.0 0.00 0.00 0.00 73 1014.5
20260507102632 67 90 6.0 10.0 0.00 0.00 0.00 74 1014.3
20260507101631 67 91 6.0 11.0 0.00 0.00 0.00 73 1014.4
20260507100632 67 82 5.0 11.0 0.00 0.00 0.00 70 1014.3
20260507095631 68 90 5.0 11.0 0.00 0.00 0.00 71 1014.2
20260507094632 67 86 6.0 9.0 0.00 0.00 0.00 72 1014.2
20260507093631 68 105 3.0 8.0 0.00 0.00 0.00 71 1014.2
20260507092631 67 87 3.0 7.0 0.00 0.00 0.00 69 1014.4
20260507091631 67 88 4.0 8.0 0.00 0.00 0.00 74 1014.5
20260507090631 67 66 4.0 8.0 0.00 0.00 0.00 73 1014.4
20260507085631 68 104 2.0 5.0 0.00 0.00 0.00 70 1014.4
20260507084632 67 115 2.0 5.0 0.00 0.00 0.00 72 1014.5
20260507083632 66 87 2.0 7.0 0.00 0.00 0.00 75 1014.5
20260507082631 66 67 2.0 6.0 0.00 0.00 0.00 76 1014.6
20260507081631 66 92 2.0 8.0 0.00 0.00 0.00 75 1014.5
20260507080631 65 93 3.0 6.0 0.00 0.00 0.00 78 1014.4
20260507075631 64 84 2.0 6.0 0.00 0.00 0.00 81 1014.6
20260507074631 63 129 0.0 0.0 0.00 0.00 0.00 81 1014.6
20260507073631 63 148 0.0 0.0 0.00 0.00 0.00 81 1014.6
20260507072631 64 123 0.0 0.0 0.00 0.00 0.00 80 1014.5
20260507071631 65 176 0.0 0.0 0.00 0.00 0.00 78 1014.4
20260507070631 65 276 0.0 0.0 0.00 0.00 0.00 78 1014.5
20260507065631 65 272 0.0 0.0 0.00 0.00 0.00 79 1014.5
20260507064631 64 298 0.0 0.0 0.00 0.00 0.00 80 1014.5
20260507063631 64 102 0.0 0.0 0.00 0.00 0.00 79 1014.3
20260507062631 65 122 0.0 1.0 0.00 0.00 0.00 80 1014.2
20260507061631 63 180 0.0 0.0 0.00 0.00 0.00 86 1014.5
20260507060631 62 180 0.0 0.0 0.00 0.00 0.00 87 1014.8
20260507055631 61 180 0.0 0.0 0.00 0.00 0.00 87 1014.8
20260507054631 61 180 0.0 0.0 0.00 0.00 0.00 87 1014.7
20260507053631 61 158 0.0 2.0 0.00 0.00 0.00 87 1014.5
20260507052631 61 152 0.0 2.0 0.00 0.00 0.00 87 1014.3
20260507051631 61 174 0.0 0.0 0.00 0.00 0.00 87 1014.2
20260507050631 61 229 0.0 3.0 0.00 0.00 0.00 87 1014.0
20260507045631 61 235 1.0 4.0 0.00 0.00 0.00 88 1013.9
20260507044631 61 239 0.0 3.0 0.00 0.00 0.00 88 1013.8
20260507043631 61 190 0.0 0.0 0.00 0.00 0.00 88 1013.6
20260507042631 61 183 0.0 0.0 0.00 0.00 0.00 87 1013.5
20260507041631 61 219 0.0 0.0 0.00 0.00 0.00 87 1013.5
20260507040631 61 232 0.0 4.0 0.00 0.00 0.00 85 1013.3
20260507035631 61 256 0.0 0.0 0.00 0.00 0.00 84 1013.2
20260507034631 61 159 0.0 3.0 0.00 0.00 0.00 82 1013.1
20260507033631 61 236 0.0 0.0 0.00 0.00 0.00 79 1013.2
20260507032631 61 263 0.0 0.0 0.00 0.00 0.00 79 1013.2
20260507031631 61 240 0.0 0.0 0.00 0.00 0.00 78 1013.0
20260507030631 62 195 0.0 0.0 0.00 0.00 0.00 77 1012.7
20260507025631 62 135 0.0 0.0 0.00 0.00 0.00 76 1012.6
20260507024631 62 206 0.0 1.0 0.00 0.00 0.00 75 1012.5
20260507023631 62 184 0.0 2.0 0.00 0.00 0.00 76 1012.5
20260507022632 61 251 0.0 0.0 0.00 0.00 0.00 77 1012.5
20260507021631 62 265 0.0 0.0 0.00 0.00 0.00 78 1012.4
20260507020631 62 211 0.0 0.0 0.00 0.00 0.00 75 1012.3
20260507015631 63 180 0.0 0.0 0.00 0.00 0.00 74 1012.1
20260507014631 63 211 0.0 0.0 0.00 0.00 0.00 74 1012.0
20260507013631 62 249 0.0 5.0 0.00 0.00 0.00 75 1012.0
20260507012631 62 255 1.0 5.0 0.00 0.00 0.00 77 1012.0
20260507011631 62 265 0.0 0.0 0.00 0.00 0.00 79 1012.1
20260507010631 61 240 0.0 0.0 0.00 0.00 0.00 81 1012.0
20260507005631 62 242 0.0 0.0 0.00 0.00 0.00 81 1011.9
20260507004631 62 243 0.0 0.0 0.00 0.00 0.00 80 1011.9
20260507003631 62 48 0.0 4.0 0.00 0.00 0.00 79 1011.9
20260507002631 63 33 0.0 0.0 0.00 0.00 0.00 77 1011.8
20260507001631 63 69 0.0 0.0 0.00 0.00 0.00 77 1011.8
20260507000631 63 118 0.0 0.0 0.00 0.00 0.00 77 1012.0
20260506235631 63 67 0.0 0.0 0.00 0.00 0.00 77 1012.0
20260506234631 64 21 0.0 0.0 0.00 0.00 0.00 76 1012.1
20260506233631 63 100 0.0 0.0 0.00 0.00 0.00 78 1012.2
20260506232631 63 120 0.0 0.0 0.00 0.00 0.00 80 1012.3
20260506231631 64 120 0.0 0.0 0.00 0.00 0.00 76 1012.3
20260506230631 63 120 0.0 0.0 0.00 0.00 0.00 78 1012.3
20260506225631 63 120 0.0 0.0 0.00 0.00 0.00 79 1012.4
20260506224631 64 201 0.0 0.0 0.00 0.00 0.00 75 1012.3
20260506223631 64 174 0.0 0.0 0.00 0.00 0.00 73 1012.1
20260506222631 65 267 2.0 5.0 0.00 0.00 0.00 70 1012.1
20260506221631 65 307 3.0 5.0 0.00 0.00 0.00 70 1012.1
20260506220631 64 301 0.0 0.0 0.00 0.00 0.00 76 1012.2
20260506215631 63 296 0.0 0.0 0.00 0.00 0.00 78 1012.4
20260506214631 63 288 0.0 0.0 0.00 0.00 0.00 80 1012.4
20260506213631 63 258 3.0 7.0 0.00 0.00 0.00 78 1012.3
20260506212631 64 55 0.0 5.0 0.00 0.00 0.00 76 1012.2
20260506211631 64 10 0.0 0.0 0.00 0.00 0.00 78 1012.4
20260506210631 64 214 3.0 6.0 0.00 0.00 0.00 77 1012.4
20260506205631 64 316 4.0 6.0 0.00 0.00 0.00 77 1012.5
20260506204631 63 207 0.0 3.0 0.00 0.00 0.00 81 1012.7
20260506203631 63 180 0.0 2.0 0.00 0.00 0.00 84 1012.7
20260506202631 63 179 0.0 2.0 0.00 0.00 0.00 83 1012.7
20260506201631 64 154 0.0 0.0 0.00 0.00 0.00 80 1012.4
20260506200631 64 96 3.0 9.0 0.00 0.00 0.00 77 1012.2
20260506195631 64 136 0.0 2.0 0.00 0.00 0.00 77 1012.3
20260506194631 65 177 2.0 8.0 0.00 0.00 0.00 76 1012.2
20260506193631 64 184 4.0 9.0 0.00 0.00 0.00 78 1012.1
20260506192632 64 66 1.0 6.0 0.00 0.00 0.00 79 1012.1
20260506191631 65 206 6.0 12.0 0.00 0.00 0.00 76 1011.9
20260506190631 64 273 7.0 12.0 0.00 0.00 0.00 78 1011.7
20260506185631 65 311 4.0 9.0 0.00 0.00 0.00 78 1011.7
20260506184631 65 284 0.0 0.0 0.00 0.00 0.00 78 1011.6
20260506183631 65 135 0.0 0.0 0.00 0.00 0.00 78 1011.6
20260506182631 65 0 0.0 0.0 0.00 0.00 0.00 78 1011.6
20260506181631 65 0 0.0 0.0 0.00 0.00 0.00 78 1011.6
20260506180631 65 0 0.0 0.0 0.00 0.00 0.00 78 1011.6
20260506175631 65 33 0.0 0.0 0.00 0.00 0.00 78 1011.6
20260506174631 65 37 0.0 0.0 0.00 0.00 0.00 79 1011.5
20260506173631 65 78 0.0 0.0 0.00 0.00 0.00 80 1011.6
20260506172631 64 327 2.0 7.0 0.00 0.00 0.00 81 1011.6
20260506171631 65 103 1.0 9.0 0.00 0.00 0.00 79 1011.4
20260506170631 65 51 2.0 4.0 0.00 0.00 0.00 77 1011.3
20260506165631 66 74 2.0 5.0 0.00 0.00 0.00 76 1011.3
20260506164631 66 60 1.0 4.0 0.00 0.00 0.00 74 1011.4
20260506163631 67 42 0.0 4.0 0.00 0.00 0.00 70 1011.4
20260506162631 67 75 0.0 0.0 0.00 0.00 0.00 68 1011.4
20260506161631 67 43 0.0 0.0 0.00 0.00 0.00 68 1011.3
20260506160631 68 38 0.0 3.0 0.00 0.00 0.00 66 1011.3
20260506155631 67 60 2.0 5.0 0.00 0.00 0.00 65 1011.3
20260506154631 67 104 4.0 7.0 0.00 0.00 0.00 65 1011.3
20260506153631 67 107 4.0 6.0 0.00 0.00 0.00 65 1011.2
20260506152631 67 120 6.0 8.0 0.00 0.00 0.00 65 1011.3
20260506151631 68 107 5.0 8.0 0.00 0.00 0.00 64 1011.3
20260506150631 68 112 5.0 10.0 0.00 0.00 0.00 65 1011.4
20260506145631 67 110 6.0 11.0 0.00 0.00 0.00 66 1011.2
20260506144631 67 108 6.0 9.0 0.00 0.00 0.00 68 1011.4
20260506143631 67 108 6.0 9.0 0.00 0.00 0.00 68 1011.4
20260506142631 67 108 7.0 10.0 0.00 0.00 0.00 68 1011.3
20260506141631 67 111 7.0 11.0 0.00 0.00 0.00 69 1011.3
20260506140631 67 112 6.0 11.0 0.00 0.00 0.00 68 1011.3
20260506135630 68 104 6.0 10.0 0.00 0.00 0.00 68 1011.4
20260506134631 69 99 5.0 9.0 0.00 0.00 0.00 66 1011.5
20260506133631 69 106 6.0 10.0 0.00 0.00 0.00 66 1011.6
20260506132631 70 84 4.0 8.0 0.00 0.00 0.00 65 1011.6
20260506131631 69 95 5.0 10.0 0.00 0.00 0.00 66 1011.6
20260506130630 68 82 6.0 9.0 0.00 0.00 0.00 68 1011.7
20260506125630 68 83 5.0 10.0 0.00 0.00 0.00 69 1011.8
20260506124630 69 79 4.0 8.0 0.00 0.00 0.00 70 1011.9
20260506123630 69 85 4.0 8.0 0.00 0.00 0.00 72 1011.9
20260506122630 69 94 4.0 8.0 0.00 0.00 0.00 76 1011.8
20260506121630 67 95 3.0 6.0 0.00 0.00 0.00 77 1012.0
20260506120630 67 88 3.0 6.0 0.00 0.00 0.00 79 1012.2
20260506115630 66 53 2.0 5.0 0.00 0.00 0.00 79 1012.4
20260506114630 65 81 4.0 7.0 0.00 0.00 0.00 80 1012.4
20260506113630 65 93 4.0 8.0 0.00 0.00 0.00 81 1012.4